UAL714 KDEN-KLAS

Flight info

Callsign UAL714
Flight time 1h 24m
Altitude 32000
Route CONNR8 WERNR ZAKRY CHESZ GGAPP CHOWW4
Aircraft A320/M-SDE3FGHIRWY/LB1

Departure

Time 2026-05-06 02:11
Airport Denver International Airport (KDEN)

Arrival

Time 2026-05-06 03:35
Airport Harry Reid International Airport (KLAS)
Time Latitude Longitude Altitude Speed Heading
2026-05-06 01:29 39.85803 -104.67035 5386 ft 0 kts
2026-05-06 02:01 39.85794 -104.67035 5386 ft 4 kts
2026-05-06 02:01 39.85767 -104.67036 5383 ft 4 kts
2026-05-06 02:01 39.85747 -104.67036 5372 ft 0 kts
2026-05-06 02:04 39.85749 -104.67037 5384 ft 1 kts 353°
2026-05-06 02:05 39.85749 -104.67047 5380 ft 1 kts 267°
2026-05-06 02:05 39.85730 -104.67086 5384 ft 9 kts 226°
2026-05-06 02:05 39.85672 -104.67153 5382 ft 12 kts 230°
2026-05-06 02:05 39.85660 -104.67264 5386 ft 14 kts 271°
2026-05-06 02:06 39.85664 -104.67405 5386 ft 17 kts 273°
2026-05-06 02:06 39.85625 -104.67518 5384 ft 15 kts 220°
2026-05-06 02:06 39.85592 -104.67640 5386 ft 15 kts 269°
2026-05-06 02:06 39.85593 -104.67785 5387 ft 16 kts 270°
2026-05-06 02:07 39.85593 -104.67938 5386 ft 18 kts 270°
2026-05-06 02:07 39.85595 -104.68102 5386 ft 19 kts 271°
2026-05-06 02:07 39.85597 -104.68267 5384 ft 20 kts 271°
2026-05-06 02:07 39.85562 -104.68396 5372 ft 16 kts 197°
2026-05-06 02:08 39.85452 -104.68403 5375 ft 16 kts 181°
2026-05-06 02:08 39.85335 -104.68404 5374 ft 17 kts 181°
2026-05-06 02:08 39.85232 -104.68414 5375 ft 13 kts 206°
2026-05-06 02:08 39.85206 -104.68552 5370 ft 21 kts 268°
2026-05-06 02:09 39.85202 -104.68759 5362 ft 25 kts 269°
2026-05-06 02:09 39.85200 -104.69008 5352 ft 30 kts 269°
2026-05-06 02:09 39.85200 -104.69279 5342 ft 27 kts 272°
2026-05-06 02:09 39.85202 -104.69469 5335 ft 12 kts 269°
2026-05-06 02:10 39.85203 -104.69583 5336 ft 15 kts 271°
2026-05-06 02:10 39.85259 -104.69661 5336 ft 13 kts
2026-05-06 02:10 39.85349 -104.69659 5336 ft 26 kts
2026-05-06 02:10 39.85763 -104.69656 5342 ft 91 kts
2026-05-06 02:11 39.86582 -104.69647 5332 ft 143 kts
2026-05-06 02:11 39.87709 -104.69637 5473 ft 170 kts
2026-05-06 02:11 39.88843 -104.69880 6232 ft 168 kts 332°
2026-05-06 02:11 39.89603 -104.71018 6844 ft 174 kts 283°
2026-05-06 02:12 39.89500 -104.72570 7206 ft 181 kts 246°
2026-05-06 02:12 39.88931 -104.74127 7380 ft 199 kts 245°
2026-05-06 02:12 39.88390 -104.75870 7635 ft 216 kts 248°
2026-05-06 02:12 39.87826 -104.77779 7867 ft 237 kts 248°
2026-05-06 02:13 39.87217 -104.79890 8110 ft 261 kts 248°
2026-05-06 02:13 39.86568 -104.82210 8465 ft 281 kts 249°
2026-05-06 02:13 39.85903 -104.84628 9166 ft 287 kts 248°
2026-05-06 02:13 39.85228 -104.87091 9827 ft 291 kts 248°
2026-05-06 02:14 39.84544 -104.89573 10246 ft 291 kts 248°
2026-05-06 02:14 39.83931 -104.92067 11092 ft 288 kts 253°
2026-05-06 02:14 39.83402 -104.94572 11897 ft 286 kts 256°
2026-05-06 02:14 39.82913 -104.97074 12701 ft 285 kts 257°
2026-05-06 02:15 39.82434 -104.99574 13511 ft 284 kts 257°
2026-05-06 02:15 39.81955 -105.02063 14277 ft 283 kts 257°
2026-05-06 02:15 39.81471 -105.04548 14938 ft 284 kts 257°
2026-05-06 02:15 39.80980 -105.07040 15589 ft 285 kts 257°
2026-05-06 02:16 39.80483 -105.09539 16225 ft 286 kts 257°
2026-05-06 02:16 39.79981 -105.12047 16855 ft 287 kts 257°
2026-05-06 02:16 39.79474 -105.14566 17482 ft 289 kts 257°
2026-05-06 02:16 39.78961 -105.17096 18111 ft 290 kts 257°
2026-05-06 02:17 39.78443 -105.19634 18658 ft 292 kts 256°
2026-05-06 02:17 39.77929 -105.22160 19157 ft 294 kts 256°
2026-05-06 02:17 39.77405 -105.24741 19668 ft 297 kts 257°
2026-05-06 02:17 39.76878 -105.27348 20156 ft 300 kts 257°
2026-05-06 02:18 39.76347 -105.29979 20628 ft 302 kts 256°
2026-05-06 02:18 39.75809 -105.32637 21083 ft 306 kts 256°
2026-05-06 02:18 39.75262 -105.35318 21528 ft 309 kts 256°
2026-05-06 02:18 39.74708 -105.38023 21977 ft 311 kts 256°
2026-05-06 02:19 39.74149 -105.40753 22432 ft 314 kts 256°
2026-05-06 02:19 39.73587 -105.43505 22891 ft 317 kts 256°
2026-05-06 02:19 39.73010 -105.46324 23036 ft 329 kts 256°
2026-05-06 02:19 39.72409 -105.49241 23174 ft 341 kts 256°
2026-05-06 02:20 39.71141 -105.55383 23566 ft 360 kts 256°
2026-05-06 02:20 39.70491 -105.58546 23944 ft 364 kts 256°
2026-05-06 02:20 39.69841 -105.61734 24346 ft 366 kts 256°
2026-05-06 02:21 39.69187 -105.64937 24677 ft 369 kts 256°
2026-05-06 02:21 39.68563 -105.68183 24954 ft 374 kts 258°
2026-05-06 02:21 39.68049 -105.71517 25220 ft 379 kts 260°
2026-05-06 02:21 39.67605 -105.74917 25557 ft 382 kts 261°
2026-05-06 02:22 39.67189 -105.78333 25922 ft 385 kts 262°
2026-05-06 02:22 39.66768 -105.81772 26235 ft 387 kts 261°
2026-05-06 02:22 39.66327 -105.85224 26594 ft 389 kts 261°
2026-05-06 02:22 39.65868 -105.88698 26941 ft 391 kts 261°
2026-05-06 02:23 39.65395 -105.92178 27291 ft 394 kts 260°
2026-05-06 02:23 39.64905 -105.95693 27599 ft 396 kts 260°
2026-05-06 02:23 39.64409 -105.99215 27957 ft 398 kts 260°
2026-05-06 02:23 39.63911 -106.02771 28189 ft 403 kts 261°
2026-05-06 02:24 39.63408 -106.06372 28464 ft 407 kts 261°
2026-05-06 02:24 39.62910 -106.09948 28753 ft 410 kts 261°
2026-05-06 02:24 39.62404 -106.13596 29072 ft 412 kts 261°
2026-05-06 02:24 39.61892 -106.17261 29389 ft 414 kts 261°
2026-05-06 02:25 39.61374 -106.20944 29695 ft 417 kts 261°
2026-05-06 02:25 39.60852 -106.24637 30093 ft 416 kts 261°
2026-05-06 02:25 39.60329 -106.28327 30489 ft 415 kts 261°
2026-05-06 02:25 39.59811 -106.32001 30852 ft 414 kts 261°
2026-05-06 02:26 39.59291 -106.35676 31227 ft 414 kts 261°
2026-05-06 02:26 39.58770 -106.39354 31499 ft 416 kts 262°
2026-05-06 02:26 39.58247 -106.43055 31740 ft 418 kts 262°
2026-05-06 02:27 39.57202 -106.50378 31789 ft 409 kts 262°
2026-05-06 02:27 39.56163 -106.57613 31786 ft 408 kts 262°
2026-05-06 02:28 39.55124 -106.64842 31781 ft 408 kts 261°
2026-05-06 02:28 39.53335 -106.71834 31784 ft 412 kts 251°
2026-05-06 02:29 39.51165 -106.78745 31784 ft 415 kts 251°
2026-05-06 02:29 39.48981 -106.85673 31768 ft 416 kts 251°
2026-05-06 02:29 39.47889 -106.89140 31887 ft 416 kts 251°
2026-05-06 02:30 39.46799 -106.92601 31878 ft 416 kts 251°
2026-05-06 02:30 39.44612 -106.99532 31863 ft 416 kts 251°
2026-05-06 02:31 39.42421 -107.06456 31829 ft 416 kts 251°
2026-05-06 02:31 39.40219 -107.13401 31795 ft 418 kts 251°
2026-05-06 02:32 39.37999 -107.20367 31762 ft 420 kts 250°
2026-05-06 02:32 39.35579 -107.27253 31764 ft 422 kts 248°
2026-05-06 02:33 39.32989 -107.34058 31763 ft 423 kts 247°
2026-05-06 02:33 39.32124 -107.36312 31770 ft 423 kts 247°
2026-05-06 02:34 39.27832 -107.47721 31758 ft 424 kts 248°
2026-05-06 02:34 39.25274 -107.54600 31761 ft 426 kts 248°
2026-05-06 02:35 39.22727 -107.61442 31767 ft 426 kts 248°
2026-05-06 02:35 39.20148 -107.68337 31773 ft 427 kts 248°
2026-05-06 02:36 39.17560 -107.75223 31736 ft 427 kts 248°
2026-05-06 02:36 39.14955 -107.82130 31732 ft 429 kts 248°
2026-05-06 02:37 39.12337 -107.89054 31723 ft 431 kts 248°
2026-05-06 02:37 39.09710 -107.96000 31737 ft 432 kts 248°
2026-05-06 02:38 39.07077 -108.02955 31740 ft 433 kts 248°
2026-05-06 02:38 39.04437 -108.09913 31733 ft 433 kts 247°
2026-05-06 02:39 39.01785 -108.16877 31736 ft 434 kts 247°
2026-05-06 02:39 38.99123 -108.23836 31740 ft 434 kts 247°
2026-05-06 02:40 38.96456 -108.30795 31769 ft 434 kts 247°
2026-05-06 02:40 38.93784 -108.37760 31779 ft 435 kts 247°
2026-05-06 02:41 38.91109 -108.44720 31766 ft 435 kts 247°
2026-05-06 02:41 38.88422 -108.51699 31752 ft 437 kts 247°
2026-05-06 02:42 38.85724 -108.58688 31741 ft 437 kts 247°
2026-05-06 02:42 38.83014 -108.65682 31730 ft 438 kts 246°
2026-05-06 02:43 38.80313 -108.72636 31715 ft 439 kts 246°
2026-05-06 02:43 38.77591 -108.79633 31706 ft 438 kts 247°
2026-05-06 02:44 38.74859 -108.86633 31724 ft 440 kts 246°
2026-05-06 02:44 38.72111 -108.93637 31715 ft 440 kts 246°
2026-05-06 02:45 38.69372 -109.00651 31718 ft 441 kts 246°
2026-05-06 02:45 38.66627 -109.07664 31737 ft 441 kts 246°
2026-05-06 02:46 38.63867 -109.14679 31703 ft 442 kts 246°
2026-05-06 02:46 38.61091 -109.21720 31700 ft 445 kts 246°
2026-05-06 02:47 38.58292 -109.28780 31695 ft 446 kts 246°
2026-05-06 02:47 38.55485 -109.35855 31701 ft 446 kts 246°
2026-05-06 02:48 38.52681 -109.42935 31701 ft 447 kts 246°
2026-05-06 02:48 38.49868 -109.50018 31703 ft 448 kts 246°
2026-05-06 02:49 38.47031 -109.57106 31699 ft 450 kts 245°
2026-05-06 02:49 38.44206 -109.64173 31687 ft 450 kts 246°
2026-05-06 02:50 38.41355 -109.71295 31705 ft 451 kts 245°
2026-05-06 02:50 38.38498 -109.78416 31712 ft 452 kts 245°
2026-05-06 02:51 38.35625 -109.85546 31700 ft 453 kts 245°
2026-05-06 02:51 38.33232 -109.91471 31700 ft 453 kts 245°
2026-05-06 02:52 38.30339 -109.98614 31713 ft 454 kts 245°
2026-05-06 02:52 38.27471 -110.05771 31724 ft 454 kts 246°
2026-05-06 02:53 38.24882 -110.13097 31712 ft 454 kts 250°
2026-05-06 02:53 38.22434 -110.20514 31688 ft 455 kts 250°
2026-05-06 02:54 38.19931 -110.27916 31700 ft 457 kts 249°
2026-05-06 02:54 38.17350 -110.35317 31705 ft 458 kts 248°
2026-05-06 02:55 38.14748 -110.42706 31712 ft 459 kts 248°
2026-05-06 02:55 38.12149 -110.50111 31707 ft 459 kts 249°
2026-05-06 02:56 38.09549 -110.57520 31711 ft 460 kts 249°
2026-05-06 02:56 38.06947 -110.64934 31716 ft 460 kts 249°
2026-05-06 02:57 38.04341 -110.72345 31716 ft 460 kts 249°
2026-05-06 02:57 38.01720 -110.79743 31730 ft 460 kts 248°
2026-05-06 02:58 37.99093 -110.87149 31715 ft 461 kts 249°
2026-05-06 02:58 37.96464 -110.94559 31722 ft 462 kts 249°
2026-05-06 02:59 37.93821 -111.01982 31740 ft 462 kts 248°
2026-05-06 02:59 37.91185 -111.09358 31744 ft 463 kts 248°
2026-05-06 03:00 37.88529 -111.16778 31731 ft 463 kts 249°
2026-05-06 03:00 37.85865 -111.24197 31736 ft 464 kts 249°
2026-05-06 03:01 37.83192 -111.31638 31755 ft 465 kts 249°
2026-05-06 03:01 37.80512 -111.39078 31767 ft 465 kts 248°
2026-05-06 03:02 37.77819 -111.46530 31777 ft 466 kts 248°
2026-05-06 03:02 37.75119 -111.53988 31786 ft 467 kts 248°
2026-05-06 03:03 37.72409 -111.61452 31790 ft 468 kts 248°
2026-05-06 03:03 37.69692 -111.68919 31779 ft 468 kts 248°
2026-05-06 03:04 37.66966 -111.76379 31830 ft 468 kts 248°
2026-05-06 03:04 37.64223 -111.83837 31866 ft 469 kts 248°
2026-05-06 03:05 37.61484 -111.91300 31901 ft 469 kts 248°
2026-05-06 03:05 37.58749 -111.98773 31931 ft 469 kts 248°
2026-05-06 03:06 37.55998 -112.06239 31939 ft 470 kts 248°
2026-05-06 03:06 37.53177 -112.13659 31937 ft 472 kts 242°
2026-05-06 03:07 37.49624 -112.20630 31909 ft 474 kts 238°
2026-05-06 03:07 37.46019 -112.27587 31877 ft 475 kts 238°
2026-05-06 03:08 37.42434 -112.34503 31850 ft 475 kts 238°
2026-05-06 03:08 37.38820 -112.41466 31835 ft 476 kts 238°
2026-05-06 03:09 37.35192 -112.48418 31852 ft 476 kts 238°
2026-05-06 03:09 37.31549 -112.55382 31850 ft 477 kts 238°
2026-05-06 03:10 37.27904 -112.62351 31861 ft 478 kts 238°
2026-05-06 03:10 37.24252 -112.69313 31865 ft 478 kts 238°
2026-05-06 03:11 37.20599 -112.76273 31885 ft 478 kts 238°
2026-05-06 03:11 37.16938 -112.83240 31905 ft 479 kts 238°
2026-05-06 03:12 37.13267 -112.90209 31927 ft 479 kts 238°
2026-05-06 03:12 37.09579 -112.97177 31954 ft 480 kts 238°
2026-05-06 03:13 37.05883 -113.04149 31976 ft 480 kts 238°
2026-05-06 03:13 37.02188 -113.11112 31983 ft 481 kts 237°
2026-05-06 03:14 36.98466 -113.18118 31968 ft 491 kts 237°
2026-05-06 03:14 36.94648 -113.25285 31937 ft 497 kts 237°
2026-05-06 03:14 36.92768 -113.28804 31539 ft 487 kts 237°
2026-05-06 03:15 36.90893 -113.32309 30773 ft 482 kts 237°
2026-05-06 03:15 36.89037 -113.35775 29935 ft 478 kts 237°
2026-05-06 03:15 36.87171 -113.39254 28981 ft 473 kts 237°
2026-05-06 03:15 36.85383 -113.42591 28159 ft 465 kts 237°
2026-05-06 03:16 36.83595 -113.45927 27360 ft 458 kts 237°
2026-05-06 03:16 36.81832 -113.49213 26950 ft 453 kts 237°
2026-05-06 03:16 36.80090 -113.52459 26575 ft 448 kts 237°
2026-05-06 03:16 36.78361 -113.55682 26144 ft 446 kts 237°
2026-05-06 03:17 36.76644 -113.58887 25764 ft 442 kts 237°
2026-05-06 03:17 36.74941 -113.62061 25388 ft 438 kts 237°
2026-05-06 03:17 36.73251 -113.65207 25033 ft 435 kts 237°
2026-05-06 03:17 36.71574 -113.68324 24696 ft 431 kts 237°
2026-05-06 03:18 36.69908 -113.71416 24359 ft 428 kts 237°
2026-05-06 03:18 36.68256 -113.74477 24024 ft 424 kts 237°
2026-05-06 03:18 36.66617 -113.77512 23672 ft 421 kts 237°
2026-05-06 03:18 36.64987 -113.80529 23341 ft 417 kts 237°
2026-05-06 03:19 36.63377 -113.83512 22958 ft 413 kts 237°
2026-05-06 03:19 36.61782 -113.86462 22548 ft 409 kts 237°
2026-05-06 03:19 36.60196 -113.89390 22123 ft 406 kts 237°
2026-05-06 03:19 36.58620 -113.92286 21710 ft 402 kts 236°
2026-05-06 03:20 36.55313 -113.97824 20794 ft 393 kts 232°
2026-05-06 03:20 36.53632 -114.00472 20030 ft 388 kts 232°
2026-05-06 03:20 36.51963 -114.03079 19293 ft 382 kts 232°
2026-05-06 03:21 36.50326 -114.05652 18590 ft 377 kts 233°
2026-05-06 03:21 36.48726 -114.08195 18025 ft 372 kts 233°
2026-05-06 03:21 36.47154 -114.10710 17671 ft 367 kts 233°
2026-05-06 03:21 36.45599 -114.13207 17259 ft 363 kts 233°
2026-05-06 03:22 36.44060 -114.15683 16831 ft 360 kts 233°
2026-05-06 03:22 36.42539 -114.18130 16424 ft 357 kts 233°
2026-05-06 03:22 36.41022 -114.20566 16018 ft 355 kts 233°
2026-05-06 03:22 36.39517 -114.22977 15623 ft 353 kts 233°
2026-05-06 03:23 36.38026 -114.25350 15440 ft 343 kts 233°
2026-05-06 03:23 36.36563 -114.27651 15209 ft 337 kts 233°
2026-05-06 03:23 36.35114 -114.29913 14891 ft 334 kts 233°
2026-05-06 03:23 36.33675 -114.32157 14554 ft 331 kts 233°
2026-05-06 03:24 36.32249 -114.34382 14180 ft 327 kts 233°
2026-05-06 03:24 36.30844 -114.36581 13575 ft 324 kts 233°
2026-05-06 03:24 36.29473 -114.38733 12932 ft 320 kts 233°
2026-05-06 03:24 36.28089 -114.40903 12488 ft 322 kts 233°
2026-05-06 03:25 36.26708 -114.43059 12131 ft 319 kts 233°
2026-05-06 03:25 36.25328 -114.45207 11825 ft 316 kts 233°
2026-05-06 03:25 36.23954 -114.47325 11482 ft 313 kts 232°
2026-05-06 03:25 36.22598 -114.49400 11053 ft 308 kts 232°
2026-05-06 03:26 36.21262 -114.51443 10585 ft 300 kts 232°
2026-05-06 03:26 36.19960 -114.53437 10218 ft 298 kts 233°
2026-05-06 03:26 36.18661 -114.55433 9854 ft 298 kts 232°
2026-05-06 03:26 36.17359 -114.57428 9468 ft 298 kts 232°
2026-05-06 03:27 36.16057 -114.59415 9115 ft 296 kts 232°
2026-05-06 03:27 36.14763 -114.61391 8785 ft 295 kts 232°
2026-05-06 03:27 36.13484 -114.63345 8589 ft 289 kts 232°
2026-05-06 03:27 36.12225 -114.65267 8428 ft 287 kts 233°
2026-05-06 03:28 36.10984 -114.67158 8319 ft 278 kts 231°
2026-05-06 03:28 36.09782 -114.68987 8212 ft 269 kts 232°
2026-05-06 03:28 36.08637 -114.70733 8098 ft 252 kts 232°
2026-05-06 03:28 36.07734 -114.72496 8000 ft 239 kts 249°
2026-05-06 03:29 36.07335 -114.74470 7879 ft 237 kts 267°
2026-05-06 03:29 36.07319 -114.76497 7599 ft 235 kts 270°
2026-05-06 03:29 36.07329 -114.78520 7314 ft 235 kts 270°
2026-05-06 03:29 36.07336 -114.80540 7016 ft 235 kts 269°
2026-05-06 03:30 36.07340 -114.82563 6704 ft 235 kts 269°
2026-05-06 03:30 36.07344 -114.84580 6415 ft 234 kts 268°
2026-05-06 03:30 36.07348 -114.86596 6104 ft 234 kts 269°
2026-05-06 03:30 36.07352 -114.88580 5793 ft 226 kts 268°
2026-05-06 03:31 36.07355 -114.90468 5503 ft 214 kts 268°
2026-05-06 03:31 36.07357 -114.92255 5262 ft 201 kts 268°
2026-05-06 03:31 36.07359 -114.93941 4980 ft 191 kts 268°
2026-05-06 03:31 36.07361 -114.95541 4732 ft 185 kts 268°
2026-05-06 03:32 36.07364 -114.97082 4510 ft 171 kts 268°
2026-05-06 03:32 36.07363 -114.98518 4356 ft 168 kts 268°
2026-05-06 03:32 36.07355 -114.99969 4143 ft 168 kts 268°
2026-05-06 03:32 36.07351 -115.01397 3914 ft 162 kts 268°
2026-05-06 03:33 36.07352 -115.02713 3673 ft 147 kts 269°
2026-05-06 03:33 36.07354 -115.03959 3447 ft 144 kts 269°
2026-05-06 03:33 36.07355 -115.05189 3284 ft 143 kts 268°
2026-05-06 03:33 36.07361 -115.06411 3077 ft 143 kts 267°
2026-05-06 03:34 36.07364 -115.07646 2930 ft 145 kts 264°
2026-05-06 03:34 36.07360 -115.08911 2747 ft 146 kts 264°
2026-05-06 03:34 36.07361 -115.10171 2531 ft 147 kts 266°
2026-05-06 03:34 36.07367 -115.11436 2351 ft 147 kts 267°
2026-05-06 03:35 36.07365 -115.12697 2159 ft 146 kts 267°
2026-05-06 03:35 36.07359 -115.13815 2122 ft 99 kts 270°
2026-05-06 03:35 36.07370 -115.14332 2128 ft 38 kts 282°
2026-05-06 03:35 36.07475 -115.14599 2125 ft 27 kts 305°
2026-05-06 03:36 36.07532 -115.14654 2127 ft 0 kts 351°
2026-05-06 03:38 36.07552 -115.14658 2125 ft 8 kts 353°
2026-05-06 03:38 36.07614 -115.14660 2125 ft 10 kts 359°
2026-05-06 03:38 36.07694 -115.14660 2122 ft 14 kts
2026-05-06 03:39 36.07769 -115.14597 2119 ft 18 kts 79°
2026-05-06 03:39 36.07763 -115.14438 2121 ft 19 kts 96°
2026-05-06 03:39 36.07755 -115.14327 2121 ft 20 kts 92°
2026-05-06 03:39 36.07868 -115.14242 2117 ft 20 kts 358°
2026-05-06 03:40 36.08017 -115.14242 2115 ft 23 kts 358°
2026-05-06 03:40 36.08189 -115.14234 2105 ft 26 kts 10°
2026-05-06 03:40 36.08252 -115.14122 2100 ft 13 kts 89°
2026-05-06 03:40 36.08255 -115.14048 2101 ft 4 kts 86°
2026-05-06 03:41 36.08255 -115.14037 2101 ft 0 kts 86°